COSMOS 2425 (GLONASS) 1 29670U 06062A 21016.64697331 .00000013 00000-0 00000-0 0 9991 2 29670 64.8858 260.5810 0024586 348.2633 335.6751 2.13107746109439 COSMOS 2426 (GLONASS) 1 29671U 06062B 21017.62985235 .00000008 00000-0 00000+0 0 9997 2 29671 64.8945 260.6809 0019996 175.5515 114.9244 2.12962977109445 COSMOS 2433 (GLONASS) 1 32275U 07052A 21017.63688644 -.00000058 00000-0 00000-0 0 9993 2 32275 66.0362 21.7965 0005369 256.8999 286.2737 2.13104238102973 COSMOS 2432 (GLONASS) 1 32276U 07052B 21017.55347990 -.00000058 00000-0 00000-0 0 9991 2 32276 66.0488 21.8909 0011655 316.9117 111.9076 2.13103431102971 COSMOS 2434 (GLONASS) 1 32393U 07065A 21017.65111494 .00000009 00000-0 00000+0 0 9998 2 32393 64.5029 259.0750 0003694 71.4526 10.6210 2.13103071101687 COSMOS 2436 (GLONASS) 1 32395U 07065C 21017.58108403 .00000009 00000-0 00000-0 0 9999 2 32395 64.5110 259.1287 0015780 2.5732 161.9310 2.13102937101613 COSMOS 2456 (GLONASS) 1 36111U 09070A 21017.89749345 .00000023 00000-0 00000+0 0 9992 2 36111 64.2544 138.7452 0002414 334.5384 109.0975 2.13099128 86358 COSMOS 2457 (GLONASS) 1 36112U 09070B 21017.63291170 .00000022 00000-0 00000+0 0 9992 2 36112 64.2370 138.6425 0006467 154.3341 209.4981 2.13101389 86353 COSMOS 2458 (GLONASS) 1 36113U 09070C 21017.61642249 .00000022 00000-0 00000-0 0 9999 2 36113 64.2429 138.6659 0004410 309.2707 46.5792 2.13082448 86344 COSMOS 2459 (GLONASS) 1 36400U 10007A 21017.54749758 -.00000058 00000-0 00000-0 0 9995 2 36400 65.9342 20.7434 0025560 343.5468 347.1544 2.13105065 84682 COSMOS 2461 (GLONASS) 1 36401U 10007B 21017.89383694 -.00000057 00000-0 00000+0 0 9995 2 36401 65.9297 20.6963 0019607 359.2867 239.1179 2.13103706 84707 COSMOS 2460 (GLONASS) 1 36402U 10007C 21017.87453861 -.00000057 00000-0 00000+0 0 9998 2 36402 65.9169 20.6562 0002687 268.6217 258.2859 2.13106555 84705 COSMOS 2464 (GLONASS) 1 37139U 10041C 21017.62850979 .00000010 00000-0 00000+0 0 9996 2 37139 64.1023 258.4076 0028661 11.5061 275.2552 2.13100756 80753 COSMOS 2471 (GLONASS) 1 37372U 11009A 21017.66676508 -.00000058 00000-0 00000+0 0 9991 2 37372 65.9144 20.6025 0010586 234.0573 296.9760 2.13107397 76973 COSMOS 2474 (GLONASS) 1 37829U 11055A 21017.51090931 .00000024 00000-0 00000+0 0 9995 2 37829 64.5716 139.8737 0008643 237.5438 124.1335 2.13101680 72348 COSMOS 2476 (GLONASS) 1 37867U 11064A 21017.54612189 .00000024 00000-0 00000-0 0 9996 2 37867 64.5512 139.9107 0019255 233.2843 201.8264 2.13101816 71692 COSMOS 2477 (GLONASS) 1 37868U 11064B 21017.65485248 .00000024 00000-0 00000+0 0 9992 2 37868 64.5591 139.9657 0016696 233.2869 103.6458 2.13101654 71643 COSMOS 2475 (GLONASS) 1 37869U 11064C 21017.38088922 .00000024 00000-0 00000-0 0 9992 2 37869 64.5662 139.9784 0020030 256.3280 188.0141 2.13101814 71659 COSMOS 2485 (GLONASS) 1 39155U 13019A 21017.52674365 .00000025 00000-0 00000+0 0 9992 2 39155 64.7180 140.2271 0019750 228.4721 236.2988 2.13101792 60163 COSMOS 2492 (GLONASS) 1 39620U 14012A 21017.63093682 -.00000058 00000-0 00000+0 0 9999 2 39620 65.8073 20.4179 0014894 315.9361 263.6904 2.13103223 53115 COSMOS 2500 (GLONASS) 1 40001U 14032A 21017.83110797 -.00000058 00000-0 00000+0 0 9995 2 40001 65.7460 20.3096 0008058 221.7421 11.4408 2.13102511 51331 COSMOS 2501 (GLONASS) 1 40315U 14075A 21017.48220103 .00000009 00000-0 00000-0 0 9990 2 40315 63.8158 259.2774 0015708 210.0706 281.2721 2.13101350 47739 COSMOS 2514 (GLONASS) 1 41330U 16008A 21017.56345774 -.00000059 00000-0 00000+0 0 9992 2 41330 65.5485 20.1385 0011637 224.9649 345.7398 2.13102851 38495 COSMOS 2516 (GLONASS) 1 41554U 16032A 21017.35302352 .00000009 00000-0 00000-0 0 9994 2 41554 64.0400 259.4144 0011874 219.5683 81.7279 2.13106608 36098 COSMOS 2522 (GLONASS) 1 42939U 17055A 21017.41607956 .00000009 00000-0 00000+0 0 9992 2 42939 64.2737 259.6543 0006404 255.1444 320.3756 2.13102077 25850